Regional Weather Roundup
Issued by NWS Albany, NY

Home | Current Version | Previous Version | Text Only | Print | Product List | Glossary On
Versions: 1 2 3 4 5 6 7 8 9 10 11 12 13 14 15 16 17 18 19 20 21 22 23 24 25 26 27 28 29 30 31 32 33 34 35 36 37 38 39 40 41 42 43 44 45 46 47 48 49 50
000
ASUS41 KALY 301510
RWRALY

NEW YORK STATE HOURLY WEATHER ROUNDUP
NATIONAL WEATHER SERVICE ALBANY NY
1100 AM EDT TUE SEP 30 2014

NOTE: "FAIR" INDICATES FEW OR NO CLOUDS BELOW 12,000 FEET WITH NO
SIGNIFICANT WEATHER AND/OR NO OBSTRUCTIONS TO VISIBILITY.

NYZ032-033-038>043-046>054-057>066-NYZ062>081-301600-
EAST


CITY           SKY/WX    TMP DP  RH WIND       PRES   REMARKS
ALBANY         CLOUDY    67  57  70 E5        29.98F
GLENS FALLS    CLOUDY    62  56  80 CALM      29.98F
POUGHKEEPSIE   CLOUDY    68  59  73 SE8       29.97S
NEWBURGH       PTSUNNY   68  63  83 SE9       29.99R FOG
MONTGOMERY     MOSUNNY   71  62  73 NE3       29.96F
WHITE PLAINS     N/A     62  59  90 VRB7      29.97F FOG
ISLIP          CLOUDY    63  60  90 E10       29.95F
NEW YORK CITY  CLOUDY    67  58  72 NE13      29.95F
CENTRAL PARK   CLOUDY    69  57  65 VRB3      29.98F
$$

NYZ005>009-017-018-044>046-055-056-301600-
CENTRAL


CITY           SKY/WX    TMP DP  RH WIND       PRES   REMARKS
FULTON         SUNNY     67  60  78 VRB3      29.91S
SYRACUSE       MOSUNNY   69  60  73 E3        29.90F
ROME           SUNNY     67  60  78 SE10      29.95F
ELMIRA         MOSUNNY   58  57  97 CALM      29.92F FOG
BINGHAMTON     SUNNY     66  59  78 SE6       29.94S
MONTICELLO     CLOUDY    59  59 100 CALM      30.00S VSB 3/4
$$

NYZ026>034-041>043-301600-
NORTH


CITY           SKY/WX    TMP DP  RH WIND       PRES   REMARKS
WATERTOWN      MOSUNNY   63  52  67 NE8       29.93S
FORT DRUM      NOT AVBL
MASSENA        CLOUDY    53  50  89 NE9       30.00S
SARANAC LAKE   MOSUNNY   65  54  67 CALM      29.96F
PLATTSBURGH    CLOUDY    57  51  80 VRB5      29.99S
$$

NYZ001>004-010>016-019>021-301600-
WEST


CITY           SKY/WX    TMP DP  RH WIND       PRES   REMARKS
NIAGARA FALLS  PTSUNNY   68  57  68 S3        29.88F
BUFFALO        PTSUNNY   67  55  65 S3        29.89F
DUNKIRK        PTSUNNY   66  58  75 SW14      29.90S
JAMESTOWN      PTSUNNY   48 N/A N/A SW9       29.93S
WELLSVILLE     MOSUNNY   66  57  72 CALM      29.95S
ROCHESTER      MOSUNNY   68  56  65 CALM      29.90F
PENN YAN       MOSUNNY   67  56  67 SW5       29.92S
$$

             KEY
       WCI = WIND CHILL INDEX
       VSB = VISIBILITY
       HX  = HEAT INDEX
$$



USA.gov is the U.S. government's official web portal to all federal, state and local government web resources and services.